Location: Lombard
(41.8800°N, 88.0080°W)
Time: 23:32:38
(UTC-05:00)

Tiros 1 - Pass Details

Date: 29 January 2023
Orbit: 628 x 662 km, 48.4° (Epoch: 20 March)

Event Time Altitude Azimuth Distance (km) Brightness Sun altitude
Rises 04:04:09 0° 272° (W) 2,922 - -34.2°
Reaches altitude 10° 04:06:35 10° 279° (W) 2,020 - -33.8°
Maximum altitude 04:10:58 40° 350° (N) 939 - -33.0°
Exits shadow 04:13:19 24° 45° (NE) 1,345 9.1 -32.5°
Drops below altitude 10° 04:15:25 10° 61° (ENE) 2,044 10.4 -32.1°
Sets 04:17:54 0° 68° (ENE) 2,961 11.6 -31.7°
